Home > Weather > Sunderland > Past weeks

Flag for United Kingdom Past Weather in Sunderland, England, United Kingdom — Yesterday and Last 2 Weeks

Now
66 °F

Passing clouds.


Feels Like: 66 °F
Forecast: 57 / 65 °F
Wind: 1 mph from North

Location: Newcastle

Current Time: Jul 24, 2016 at 9:54:42 AM

Latest Report: Jul 24, 2016 at 9:20 AM


Visibility: N/A

Pressure: 30.01 "Hg

Humidity: 78%

Dew Point: 59 °F

Location of SunderlandLocation

Past Weather in Sunderland — Graph

°F

Sunderland Temperature Yesterday

Maximum temperature yesterday: 70 °F (at 6:50 PM)
Minimum temperature yesterday: 55 °F (at 4:20 AM)
Average temperature yesterday: 63 °F

High & Low Weather Summary for the Past Weeks

 TemperatureHumidityPressure
High84 °F (Jul 19, 1:50 PM)100% (Jul 9, 8:20 AM)30.24 "Hg (Jul 9, 8:20 AM)
Low46 °F (Jul 14, 3:20 AM)48% (Jul 19, 1:50 PM)29.39 "Hg (Jul 11, 4:20 AM)
Average62 °F81%29.94 "Hg
* Reported Jul 9 8:20 AM — Jul 24 8:20 AM, Sunderland, Weather by CustomWeather, © 2016

Note: Actual official high and low records may vary slightly from our data, if they occured in-between our weather recording intervals... More about our weather records

Advertising

Sunderland Weather History for the Previous 24 Hours

Scroll right to see more
 ConditionsComfort  
Time TempWeatherWind HumidityBarometerVisibility
8:20 AM
Sun, Jul 24
66 °FPassing clouds.1 mph73%30.04 "HgN/A
7:50 AM64 °FPassing clouds.1 mph83%30.04 "HgN/A
7:20 AM63 °FPassing clouds.No wind88%30.04 "HgN/A
6:50 AM61 °FScattered clouds.No wind94%30.04 "HgN/A
6:20 AM59 °FPassing clouds.No wind100%30.04 "HgN/A
5:50 AM59 °FClear.No wind94%30.04 "Hg10 mi
4:20 AM59 °FClear.1 mph88%30.04 "Hg10 mi
3:20 AM61 °FPassing clouds.1 mph83%30.07 "HgN/A
2:50 AM59 °FPartly cloudy.3 mph88%30.07 "HgN/A
2:20 AM59 °FPartly cloudy.5 mph88%30.07 "HgN/A
1:50 AM59 °FPassing clouds.3 mph88%30.07 "HgN/A
1:20 AM59 °FPassing clouds.3 mph88%30.09 "HgN/A
12:50 AM59 °FPassing clouds.5 mph88%30.09 "HgN/A
12:20 AM59 °FPassing clouds.3 mph88%30.09 "HgN/A
11:50 PM
Sat, Jul 23
59 °FPassing clouds.2 mph88%30.09 "HgN/A
11:20 PM59 °FPassing clouds.2 mph88%30.09 "HgN/A
10:50 PM57 °FPassing clouds.3 mph100%30.09 "HgN/A
10:20 PM57 °FPassing clouds.2 mph94%30.09 "HgN/A
9:50 PM61 °FPassing clouds.2 mph83%30.09 "HgN/A
9:20 PM63 °FPassing clouds.3 mph77%30.09 "HgN/A
8:50 PM63 °FPassing clouds.No wind83%30.09 "HgN/A
8:20 PM64 °FPassing clouds.No wind73%30.09 "HgN/A
7:50 PM66 °FPassing clouds.5 mph64%30.07 "HgN/A
7:20 PM68 °FPassing clouds.6 mph60%30.07 "HgN/A
6:50 PM70 °FPassing clouds.5 mph60%30.07 "HgN/A
6:20 PM68 °FPassing clouds.3 mph64%30.07 "HgN/A
5:50 PM66 °FPassing clouds.5 mph68%30.09 "HgN/A
5:20 PM66 °FSprinkles. Passing clouds.7 mph68%30.09 "HgN/A
4:50 PM68 °FPassing clouds.7 mph64%30.09 "HgN/A
4:20 PM68 °FPassing clouds.7 mph60%30.09 "HgN/A
3:50 PM68 °FScattered clouds.7 mph60%30.09 "HgN/A
3:20 PM68 °FScattered clouds.7 mph60%30.09 "HgN/A
2:50 PM68 °FScattered clouds.7 mph60%30.09 "HgN/A
2:20 PM68 °FScattered clouds.5 mph64%30.09 "HgN/A
1:50 PM68 °FScattered clouds.3 mph64%30.09 "HgN/A
1:20 PM68 °FScattered clouds.6 mph64%30.09 "HgN/A
12:50 PM66 °FScattered clouds.5 mph68%30.09 "HgN/A
12:20 PM66 °FScattered clouds.5 mph68%30.09 "HgN/A
11:50 AM66 °FScattered clouds.5 mph68%30.12 "HgN/A
11:20 AM66 °FScattered clouds.3 mph68%30.09 "HgN/A
10:50 AM68 °FPartly sunny.2 mph64%30.12 "HgN/A
10:20 AM64 °FPartly sunny.2 mph78%30.12 "HgN/A
9:50 AM64 °FScattered clouds.6 mph73%30.12 "HgN/A
9:20 AM63 °FScattered clouds.7 mph83%30.12 "HgN/A
Weather by CustomWeather, © 2016

See weather overviewHow to use our weather pages